This is the latest recevied weather packets stored in our database for station/object W7TTE. If no packets are shown the sender has not sent any weather packets the latest 10 day(s).
| Time | Temp. | Humidity | Pressure | Rain* | Wind** | Luminosity | Snow |
|---|---|---|---|---|---|---|---|
| 1777329080 | 27.78° C | 20% | 1013.4 hPa | 0 mm | - | 493 W/m² | - |
| 1777328777 | 27.78° C | 19% | 1013.6 hPa | 0 mm | - | 509 W/m² | - |
| 1777328474 | 27.78° C | 20% | 1013.5 hPa | 0 mm | - | 522 W/m² | - |
| 1777328174 | 27.22° C | 19% | 1013.4 hPa | 0 mm | - | 536 W/m² | - |
| 1777327872 | 27.22° C | 20% | 1013.7 hPa | 0 mm | - | 550 W/m² | - |
| 1777327569 | 27.78° C | 21% | 1013.7 hPa | 0 mm | - | 564 W/m² | - |
| 1777327266 | 27.78° C | 20% | 1013.9 hPa | 0 mm | - | 577 W/m² | - |
| 1777326963 | 27.22° C | 20% | 1013.6 hPa | 0 mm | - | 592 W/m² | - |
| 1777326661 | 27.22° C | 20% | 1013.8 hPa | 0 mm | - | 603 W/m² | - |
| 1777326357 | 27.78° C | 20% | 1014 hPa | 0 mm | - | 522 W/m² | - |
| 1777326055 | 27.22° C | 20% | 1014.1 hPa | 0 mm | - | 604 W/m² | - |
| 1777325752 | 27.22° C | 21% | 1014.1 hPa | 0 mm | - | 637 W/m² | - |
| 1777325450 | 27.22° C | 20% | 1014.1 hPa | 0 mm | - | 647 W/m² | - |
| 1777325148 | 26.67° C | 21% | 1014.2 hPa | 0 mm | - | 657 W/m² | - |
| 1777324844 | 27.22° C | 21% | 1014.3 hPa | 0 mm | - | 666 W/m² | - |
| 1777324543 | 27.22° C | 20% | 1014.5 hPa | 0 mm | - | 675 W/m² | - |
| 1777324239 | 26.67° C | 20% | 1014.6 hPa | 0 mm | - | 687 W/m² | - |
| 1777323937 | 26.67° C | 20% | 1014.6 hPa | 0 mm | - | 696 W/m² | - |
| 1777323634 | 27.22° C | 20% | 1014.4 hPa | 0 mm | - | 705 W/m² | - |
| 1777323331 | 27.22° C | 20% | 1014.6 hPa | 0 mm | - | 712 W/m² | - |
| 1777323030 | 27.22° C | 19% | 1014.6 hPa | 0 mm | - | 720 W/m² | - |
| 1777322727 | 26.67° C | 20% | 1014.5 hPa | 0 mm | - | 727 W/m² | - |
| 1777322425 | 27.22° C | 20% | 1014.7 hPa | 0 mm | - | 734 W/m² | - |
| 1777322121 | 26.67° C | 21% | 1014.6 hPa | 0 mm | - | 740 W/m² | - |
| 1777321818 | 26.67° C | 20% | 1014.8 hPa | 0 mm | - | 746 W/m² | - |
* Rain latest hour (hover to see other rain measurements)
** Current wind speed in m/s (hover to see current wind gust speed)